When you browse on this site, cookies collect data to enhance your experience and personalize the content and advertising you see.
Visit our Privacy Policy to learn more. By continuing to use the site, you agree to this use of cookies and data.
  • In Schweiz
  • Länderverzeichnis
  • Für 7 Tage
  • Wassertemperatur
  • Satellitenkarten
  • Wetterkarte
  • Widgets
  • user-avatar
    Anmelden

    Stündliche Wetter Newcastle

    Heute, 12 Dezember, Mittwoch

    Zeit Temperatur Niederschläge Wind Luftdruck Luftfeuchtigkeit
    00:00 +19°C° 0 mm 1 m/S 761 mmHg 97%
    01:00 +20°C° 0 mm 1 m/S 761 mmHg 97%
    02:00 +20°C° 0 mm 1 m/S 761 mmHg 97%
    03:00 +20°C° 0 mm 1 m/S 761 mmHg 97%
    04:00 +19°C° 0 mm 2 m/S 760 mmHg 97%
    05:00 +20°C° 0.1 mm 2 m/S 760 mmHg 95%
    06:00 +20°C° 0.1 mm 2 m/S 761 mmHg 93%
    07:00 +21°C° 0.1 mm 2 m/S 761 mmHg 91%
    08:00 +22°C° 0.2 mm 3 m/S 761 mmHg 84%
    09:00 +25°C° 0.2 mm 3 m/S 760 mmHg 77%
    10:00 +26°C° 0.2 mm 3 m/S 760 mmHg 70%
    11:00 +26°C° 0.2 mm 3 m/S 760 mmHg 68%
    12:00 +27°C° 0.2 mm 4 m/S 759 mmHg 66%
    13:00 +27°C° 0.2 mm 4 m/S 759 mmHg 63%
    14:00 +27°C° 0 mm 5 m/S 758 mmHg 65%
    15:00 +27°C° 0 mm 5 m/S 758 mmHg 66%
    16:00 +26°C° 0 mm 5 m/S 757 mmHg 68%
    17:00 +25°C° 0 mm 5 m/S 757 mmHg 73%
    18:00 +23°C° 0 mm 5 m/S 757 mmHg 78%
    19:00 +22°C° 0 mm 5 m/S 757 mmHg 83%
    20:00 +22°C° 0 mm 5 m/S 757 mmHg 85%
    21:00 +21°C° 0 mm 5 m/S 757 mmHg 87%
    22:00 +21°C° 0 mm 5 m/S 756 mmHg 90%
    23:00 +21°C° 0 mm 4 m/S 756 mmHg 91%

    Morgen, 13 Dezember, Donnerstag

    Zeit Temperatur Niederschläge Wind Luftdruck Luftfeuchtigkeit
    00:00 +21°C° 0 mm 4 m/S 755 mmHg 93%
    01:00 +21°C° 0 mm 4 m/S 755 mmHg 94%
    02:00 +20°C° 0.1 mm 4 m/S 754 mmHg 95%
    03:00 +20°C° 0.1 mm 3 m/S 754 mmHg 97%
    04:00 +20°C° 0.1 mm 3 m/S 753 mmHg 98%
    05:00 +20°C° 0.3 mm 3 m/S 753 mmHg 96%
    06:00 +21°C° 0.3 mm 3 m/S 753 mmHg 94%
    07:00 +22°C° 0.3 mm 3 m/S 753 mmHg 91%
    08:00 +25°C° 0.2 mm 3 m/S 753 mmHg 83%
    09:00 +27°C° 0.2 mm 2 m/S 753 mmHg 74%
    10:00 +28°C° 0.2 mm 2 m/S 752 mmHg 66%
    11:00 +31°C° 0 mm 3 m/S 751 mmHg 58%
    12:00 +34°C° 0 mm 4 m/S 751 mmHg 50%
    13:00 +36°C° 0 mm 5 m/S 750 mmHg 42%
    14:00 +35°C° 1.1 mm 5 m/S 749 mmHg 48%
    15:00 +33°C° 1.1 mm 6 m/S 748 mmHg 53%
    16:00 +32°C° 1.1 mm 7 m/S 748 mmHg 58%
    17:00 +29°C° 3.5 mm 7 m/S 747 mmHg 68%
    18:00 +27°C° 3.5 mm 8 m/S 747 mmHg 78%
    19:00 +24°C° 3.5 mm 8 m/S 747 mmHg 88%
    20:00 +24°C° 5.4 mm 7 m/S 748 mmHg 90%
    21:00 +23°C° 5.4 mm 5 m/S 748 mmHg 93%
    22:00 +23°C° 5.4 mm 4 m/S 749 mmHg 95%
    23:00 +23°C° 0.8 mm 4 m/S 748 mmHg 95%

    übermorgen, 14 Dezember, Freitag

    Zeit Temperatur Niederschläge Wind Luftdruck Luftfeuchtigkeit
    00:00 +22°C° 0.8 mm 5 m/S 748 mmHg 96%
    01:00 +22°C° 0.8 mm 6 m/S 747 mmHg 96%
    02:00 +22°C° 0 mm 5 m/S 747 mmHg 95%
    03:00 +22°C° 0 mm 5 m/S 747 mmHg 94%
    04:00 +22°C° 0 mm 4 m/S 747 mmHg 92%
    05:00 +23°C° 0 mm 4 m/S 748 mmHg 86%
    06:00 +25°C° 0 mm 3 m/S 748 mmHg 80%
    07:00 +26°C° 0 mm 3 m/S 749 mmHg 75%
    08:00 +29°C° 0.2 mm 3 m/S 749 mmHg 66%
    09:00 +31°C° 0.2 mm 3 m/S 749 mmHg 56%
    10:00 +34°C° 0.2 mm 3 m/S 749 mmHg 47%
    11:00 +33°C° 1 mm 3 m/S 749 mmHg 57%
    12:00 +30°C° 1 mm 4 m/S 749 mmHg 67%
    13:00 +28°C° 1 mm 4 m/S 749 mmHg 77%
    14:00 +28°C° 0.7 mm 4 m/S 749 mmHg 74%
    15:00 +29°C° 0.7 mm 4 m/S 749 mmHg 71%
    16:00 +29°C° 0.7 mm 4 m/S 749 mmHg 68%
    17:00 +28°C° 1.2 mm 4 m/S 749 mmHg 75%
    18:00 +27°C° 1.2 mm 4 m/S 750 mmHg 83%
    19:00 +25°C° 1.2 mm 4 m/S 750 mmHg 90%
    20:00 +25°C° 0.9 mm 4 m/S 751 mmHg 91%
    21:00 +23°C° 0.9 mm 4 m/S 751 mmHg 92%
    22:00 +23°C° 0.9 mm 4 m/S 752 mmHg 93%
    23:00 +23°C° 0.6 mm 4 m/S 752 mmHg 93%

    15 Dezember, Samstag

    Zeit Temperatur Niederschläge Wind Luftdruck Luftfeuchtigkeit
    00:00 +22°C° 0.6 mm 4 m/S 752 mmHg 93%
    01:00 +22°C° 0.6 mm 4 m/S 751 mmHg 93%
    02:00 +22°C° 0.2 mm 4 m/S 751 mmHg 93%
    03:00 +21°C° 0.2 mm 4 m/S 751 mmHg 94%
    04:00 +21°C° 0.2 mm 4 m/S 752 mmHg 94%
    05:00 +22°C° 0 mm 4 m/S 752 mmHg 89%
    06:00 +24°C° 0 mm 3 m/S 752 mmHg 85%
    07:00 +25°C° 0 mm 3 m/S 753 mmHg 80%
    08:00 +28°C° 0 mm 4 m/S 753 mmHg 70%
    09:00 +32°C° 0 mm 4 m/S 753 mmHg 60%
    10:00 +34°C° 0 mm 4 m/S 753 mmHg 50%
    11:00 +34°C° 1.5 mm 5 m/S 753 mmHg 58%
    12:00 +33°C° 1.5 mm 6 m/S 752 mmHg 65%
    13:00 +32°C° 1.5 mm 7 m/S 752 mmHg 72%
    14:00 +32°C° 1.5 mm 7 m/S 752 mmHg 71%
    15:00 +32°C° 1.5 mm 8 m/S 752 mmHg 69%
    16:00 +32°C° 1.5 mm 8 m/S 752 mmHg 67%
    17:00 +31°C° 1.6 mm 8 m/S 752 mmHg 70%
    18:00 +29°C° 1.6 mm 8 m/S 753 mmHg 73%
    19:00 +28°C° 1.6 mm 8 m/S 753 mmHg 76%
    20:00 +27°C° 0 mm 8 m/S 754 mmHg 77%
    21:00 +27°C° 0 mm 8 m/S 754 mmHg 79%
    22:00 +26°C° 0 mm 8 m/S 754 mmHg 81%
    23:00 +26°C° 0.3 mm 8 m/S 754 mmHg 82%

    16 Dezember, Sonntag

    Zeit Temperatur Niederschläge Wind Luftdruck Luftfeuchtigkeit
    00:00 +24°C° 0.3 mm 7 m/S 754 mmHg 83%
    01:00 +24°C° 0.3 mm 7 m/S 754 mmHg 85%
    02:00 +24°C° 0.6 mm 6 m/S 754 mmHg 87%
    03:00 +23°C° 0.6 mm 6 m/S 754 mmHg 89%
    04:00 +23°C° 0.6 mm 6 m/S 754 mmHg 91%
    05:00 +24°C° 0 mm 6 m/S 755 mmHg 88%
    06:00 +24°C° 0 mm 6 m/S 755 mmHg 85%
    07:00 +26°C° 0 mm 6 m/S 756 mmHg 82%
    08:00 +27°C° 0.3 mm 6 m/S 756 mmHg 79%
    09:00 +28°C° 0.3 mm 6 m/S 756 mmHg 75%
    10:00 +29°C° 0.3 mm 6 m/S 756 mmHg 71%
    11:00 +30°C° 0.7 mm 7 m/S 755 mmHg 72%
    12:00 +30°C° 0.7 mm 7 m/S 755 mmHg 73%
    13:00 +30°C° 0.7 mm 7 m/S 754 mmHg 74%
    14:00 +31°C° 0.5 mm 8 m/S 754 mmHg 73%
    15:00 +31°C° 0.5 mm 8 m/S 754 mmHg 71%
    16:00 +31°C° 0.5 mm 8 m/S 754 mmHg 69%
    17:00 +29°C° 0.2 mm 7 m/S 754 mmHg 73%
    18:00 +27°C° 0.2 mm 7 m/S 754 mmHg 78%
    19:00 +26°C° 0.2 mm 7 m/S 755 mmHg 83%
    20:00 +24°C° 0.2 mm 7 m/S 755 mmHg 84%
    21:00 +24°C° 0.2 mm 7 m/S 755 mmHg 86%
    22:00 +24°C° 0.2 mm 6 m/S 755 mmHg 87%
    23:00 +24°C° 0 mm 6 m/S 755 mmHg 87%

    17 Dezember, Montag

    Zeit Temperatur Niederschläge Wind Luftdruck Luftfeuchtigkeit
    00:00 +23°C° 0 mm 6 m/S 754 mmHg 87%
    01:00 +23°C° 0 mm 5 m/S 754 mmHg 87%
    02:00 +23°C° 0 mm 5 m/S 754 mmHg 88%
    03:00 +23°C° 0 mm 5 m/S 754 mmHg 89%
    04:00 +23°C° 0 mm 4 m/S 754 mmHg 90%
    05:00 +25°C° 0 mm 4 m/S 754 mmHg 86%
    06:00 +26°C° 0 mm 4 m/S 755 mmHg 82%
    07:00 +27°C° 0 mm 4 m/S 755 mmHg 78%
    08:00 +29°C° 0 mm 5 m/S 755 mmHg 71%
    09:00 +30°C° 0 mm 5 m/S 755 mmHg 64%
    10:00 +33°C° 0 mm 5 m/S 754 mmHg 58%
    11:00 +33°C° 0 mm 6 m/S 754 mmHg 57%
    12:00 +34°C° 0 mm 6 m/S 754 mmHg 56%
    13:00 +34°C° 0 mm 6 m/S 753 mmHg 56%
    14:00 +34°C° 0 mm 6 m/S 753 mmHg 56%
    15:00 +33°C° 0 mm 6 m/S 753 mmHg 57%
    16:00 +33°C° 0 mm 6 m/S 753 mmHg 58%
    17:00 +30°C° 0 mm 6 m/S 753 mmHg 65%
    18:00 +29°C° 0 mm 6 m/S 754 mmHg 71%
    19:00 +27°C° 0 mm 6 m/S 754 mmHg 77%
    20:00 +26°C° 0 mm 5 m/S 755 mmHg 81%
    21:00 +25°C° 0 mm 5 m/S 755 mmHg 84%
    22:00 +23°C° 0 mm 4 m/S 756 mmHg 88%
    23:00 +23°C° 0 mm 4 m/S 756 mmHg 91%
    Mehr zeigen